| time (UTC) | temp F | wind direction | speed knots | gust knots | rain 1hr in | rain 24hr in | rain mn in | humidity % | barometer mb |
| 20260508100703 | 44 | 338 | 0.0 | 0.0 | 0.00 | 0.34 | 0.00 | 81 | 1000.0 |
| 20260508100203 | 44 | 338 | 0.0 | 0.9 | 0.00 | 0.34 | 0.00 | 83 | 1000.0 |
| 20260508090704 | 44 | 281 | 0.0 | 0.9 | 0.00 | 0.35 | 0.00 | 81 | 999.7 |
| 20260508090203 | 44 | 281 | 0.0 | 1.7 | 0.00 | 0.35 | 0.00 | 81 | 999.7 |
| 20260508080700 | 45 | 285 | 0.0 | 0.9 | 0.00 | 0.40 | 0.00 | 81 | 999.7 |
| 20260508080200 | 45 | 281 | 0.0 | 0.9 | 0.00 | 0.40 | 0.00 | 81 | 999.7 |
| 20260508070700 | 45 | 88 | 0.0 | 0.0 | 0.00 | 0.46 | 0.00 | 82 | 999.7 |
| 20260508070201 | 45 | 88 | 0.0 | 0.9 | 0.00 | 0.47 | 0.00 | 83 | 999.7 |
| 20260508060702 | 45 | 342 | 0.0 | 0.0 | 0.00 | 0.52 | 0.00 | 81 | 999.7 |
| 20260508060201 | 45 | 342 | 0.0 | 1.7 | 0.00 | 0.52 | 0.00 | 81 | 1000.0 |
| 20260508050700 | 45 | 265 | 1.7 | 1.7 | 0.00 | 0.54 | 0.00 | 82 | 1000.7 |
| 20260508050200 | 45 | 269 | 1.7 | 1.7 | 0.00 | 0.54 | 0.00 | 82 | 1000.7 |
| 20260508040701 | 44 | 299 | 0.0 | 0.9 | 0.00 | 0.56 | 0.00 | 92 | 1000.0 |
| 20260508040201 | 44 | 299 | 0.0 | 1.7 | 0.00 | 0.56 | 0.00 | 94 | 999.7 |
| 20260508030700 | 43 | 358 | 0.9 | 1.7 | 0.28 | 0.56 | 0.00 | 94 | 999.7 |
| 20260508020701 | 44 | 147 | 0.0 | 0.9 | 0.00 | 0.28 | 0.28 | 93 | 999.7 |
| 20260508010701 | 46 | 127 | 0.9 | 0.9 | 0.00 | 0.28 | 0.28 | 92 | 999.7 |
| 20260508010201 | 46 | 111 | 0.9 | 1.7 | 0.00 | 0.28 | 0.28 | 92 | 999.7 |
| 20260508000701 | 47 | 127 | 0.0 | 0.0 | 0.00 | 0.28 | 0.28 | 89 | 999.5 |
| 20260508000204 | 47 | 127 | 0.0 | 0.9 | 0.00 | 0.28 | 0.28 | 88 | 999.6 |
| 20260507230703 | 56 | 296 | 0.0 | 0.0 | 0.00 | 0.28 | 0.28 | 53 | 999.0 |
| 20260507220701 | 58 | 343 | 0.9 | 0.9 | 0.00 | 0.28 | 0.28 | 53 | 999.0 |
| 20260507220201 | 58 | 330 | 0.9 | 2.6 | 0.00 | 0.28 | 0.28 | 53 | 999.0 |
| 20260507210702 | 59 | 248 | 1.7 | 2.6 | 0.00 | 0.28 | 0.28 | 50 | 998.6 |
| 20260507210202 | 60 | 241 | 1.7 | 2.6 | 0.00 | 0.28 | 0.28 | 50 | 998.6 |
| 20260507200701 | 59 | 333 | 0.0 | 0.9 | 0.00 | 0.28 | 0.28 | 59 | 998.3 |
| 20260507200204 | 59 | 299 | 0.9 | 4.3 | 0.00 | 0.28 | 0.28 | 62 | 998.3 |
| 20260507190202 | 58 | 290 | 0.9 | 5.2 | 0.00 | 0.28 | 0.28 | 69 | 998.3 |
| 20260507180703 | 57 | 263 | 1.7 | 2.6 | 0.00 | 0.28 | 0.28 | 78 | 998.6 |
| 20260507180203 | 57 | 269 | 2.6 | 4.3 | 0.00 | 0.28 | 0.28 | 75 | 998.3 |
| 20260507170703 | 52 | 293 | 2.6 | 4.3 | 0.00 | 0.28 | 0.28 | 89 | 999.3 |
| 20260507170202 | 52 | 298 | 1.7 | 1.7 | 0.00 | 0.28 | 0.28 | 90 | 999.0 |
| 20260507160703 | 51 | 272 | 0.0 | 1.7 | 0.00 | 0.28 | 0.28 | 93 | 999.0 |
| 20260507160203 | 51 | 272 | 1.7 | 1.7 | 0.00 | 0.28 | 0.28 | 93 | 999.3 |
| 20260507150703 | 50 | 85 | 0.0 | 0.9 | 0.02 | 0.28 | 0.28 | 93 | 999.3 |
| 20260507150203 | 50 | 84 | 0.9 | 1.7 | 0.02 | 0.28 | 0.28 | 93 | 999.0 |
| 20260507140704 | 53 | 114 | 0.0 | 0.0 | 0.04 | 0.26 | 0.26 | 91 | 1000.3 |
| 20260507140203 | 53 | 114 | 0.0 | 2.6 | 0.04 | 0.26 | 0.26 | 90 | 1000.3 |
| 20260507130704 | 54 | 265 | 2.6 | 2.6 | 0.00 | 0.22 | 0.22 | 86 | 1000.3 |
| 20260507130204 | 54 | 271 | 1.7 | 1.7 | 0.00 | 0.22 | 0.22 | 86 | 1000.0 |
| 20260507120703 | 53 | 269 | 1.7 | 1.7 | 0.00 | 0.22 | 0.22 | 87 | 1000.0 |
| 20260507120206 | 53 | 268 | 1.7 | 6.1 | 0.00 | 0.22 | 0.22 | 87 | 999.9 |
| 20260507110703 | 53 | 247 | 5.2 | 6.1 | 0.00 | 0.22 | 0.22 | 89 | 998.6 |